Location: Cisewo
(53.3833°N, 14.9000°E)
Time: 11:38:07
(UTC+00:00)

Cosmos 1500 - Pass Details

Date: 18 April 2021
Orbit: 497 x 518 km, 82.5° (Epoch: 14 May)

Event Time Altitude Azimuth Distance (km) Brightness Sun altitude
Rises 23:15:50 0° 344° (NNW) 2,652 7.9 -25.4°
Reaches altitude 10° 23:18:02 10° 339° (NNW) 1,756 6.7 -25.3°
Enters shadow 23:20:41 37° 312° (NW) 821 4.4 -25.3°
